Weather History for Belize, Belize

Change the Weather History Date:

Monday, December 24, 2012

  Actual Average Record
Temperature  
Mean Temperature 72 °F -  
Max Temperature 82 °F - 86 °F (1997)
Min Temperature 63 °F 67 °F 63 °F (2012)
Cooling Degree Days 8    
Growing Degree Days 22 (Base 50)    
Moisture  
Dew Point 66 °F    
Average Humidity 74    
Maximum Humidity 94    
Minimum Humidity 46    
Precipitation  
Precipitation 0.00 in 0.19 in - ()
Sea Level Pressure  
Sea Level Pressure 29.97 in    
Wind  
Wind Speed 3 mph ()    
Max Wind Speed 10 mph    
Max Gust Speed -    
Visibility 8.7 miles    
Events      
Averages and records for this station are not official NWS values.
T = Trace of Precipitation, MM = Missing Value Source: Averaged Metar Reports

Daily Weather History Graph

Daily Weather History Graph

Search for Another Location

Airport:

Trip Planner

Search our weather history database for the weather conditions in past years. The results will help you decide how hot, cold, wet, or windy it might be!

Date:

Astronomy

Dec. 24, 2012 Rise Set
Actual Time 6:20 AM CST 5:25 PM CST
Civil Twilight 5:56 AM CST 5:49 PM CST
Nautical Twilight 5:29 AM CST 6:16 PM CST
Astronomical Twilight 5:03 AM CST 6:43 PM CST
Moon 2:43 PM CST (12/24) 3:09 AM CST (12/24)
Length of Visible Light 11h 52m
Length of Day
11h 05m
Waxing Gibbous, 88% of the Moon is Illuminated
Dec 24
Waxing Gibbous
Dec 28
Full
Jan 4
Last Quarter
Jan 11
New
Jan 18
First Quarter

Hourly Weather History & Observations

Time (CST) Temp. Heat Index Dew Point Humidity Pressure Visibility Wind Dir Wind Speed Gust Speed Precip Events Conditions
12:00 AM 67 °F - 64 °F 89% 30.03 in 12 mi Calm Calm - -   Scattered Clouds
3:00 AM 65 °F - 63 °F 91% 29.99 in 12 mi Calm Calm - -   Scattered Clouds
5:00 AM 64.4 °F - 62.6 °F 94% 29.98 in 6.2 mi Calm Calm - N/A   Partly Cloudy
6:00 AM 64 °F - 63 °F 94% 30.00 in 12 mi Calm Calm - -   Scattered Clouds
6:00 AM 64.4 °F - 62.6 °F 94% 29.98 in 6.2 mi Calm Calm - N/A   Partly Cloudy
7:00 AM 64.4 °F - 62.6 °F 94% 30.01 in 6.2 mi Calm Calm - N/A   Partly Cloudy
8:00 AM 69.8 °F - 66.2 °F 88% 30.01 in 6.2 mi Calm Calm - N/A   Partly Cloudy
9:00 AM 73 °F - 68 °F 80% 30.03 in 12 mi Calm Calm - -   Scattered Clouds
9:00 AM 73.4 °F - 68.0 °F 83% 30.02 in 6.2 mi Calm Calm - N/A   Partly Cloudy
10:00 AM 80.6 °F 82.7 °F 66.2 °F 61% 30.02 in 6.2 mi East 8.1 mph - N/A   Partly Cloudy
11:00 AM 82.4 °F 84.6 °F 66.2 °F 58% 30.01 in 6.2 mi East 8.1 mph - N/A   Partly Cloudy
12:00 PM 83 °F - 66 °F 46% 29.99 in 16 mi East 9.2 mph - -   Partly Cloudy
12:00 PM 82.4 °F 83.9 °F 64.4 °F 54% 29.98 in 6.2 mi East 9.2 mph - N/A   Scattered Clouds
1:00 PM 80.6 °F 82.3 °F 64.4 °F 58% 29.95 in 6.2 mi East 9.2 mph - N/A   Scattered Clouds
2:00 PM 80.6 °F 82.7 °F 66.2 °F 61% 29.93 in 6.2 mi East 10.4 mph - N/A   Scattered Clouds
3:00 PM 81 °F - 66 °F 51% 29.92 in 16 mi East 10.4 mph - -   Partly Cloudy
3:00 PM 80.6 °F 82.7 °F 66.2 °F 61% 29.91 in 6.2 mi East 10.4 mph - N/A   Scattered Clouds
4:00 PM 78.8 °F - 68.0 °F 69% 29.90 in 6.2 mi East 5.8 mph - N/A   Partly Cloudy
5:00 PM 77.0 °F - 68.0 °F 74% 29.90 in 6.2 mi East 5.8 mph - N/A   Partly Cloudy
6:00 PM 74 °F - 66 °F 71% 29.91 in 12 mi East 4.6 mph - -   Scattered Clouds
6:00 PM 75.2 °F - 66.2 °F 73% 29.91 in 6.2 mi East 4.6 mph - N/A   Partly Cloudy
9:00 PM 75 °F - 72 °F 87% 29.86 in 12 mi Calm Calm - -   Scattered Clouds